Regional Weather Roundup
Issued by NWS

Home | Current Version | Previous Version | Text Only | Print | Product List | Glossary On
Versions: 1 2 3 4 5 6 7 8 9 10 11 12 13 14 15 16 17 18 19 20 21 22 23 24 25 26 27 28 29 30 31 32 33 34 35 36 37 38 39 40 41 42 43 44 45 46 47 48 49 50
000
ASUS43 KTOP 031908
RWRKS

WEATHER ROUNDUP FOR KANSAS
NATIONAL WEATHER SERVICE GOODLAND KS
200 PM CDT SUN MAY 03 2015

NOTE:  "FAIR" INDICATES FEW OR NO CLOUDS BELOW 12,000 FEET WITH NO
SIGNIFICANT WEATHER AND/OR OBSTRUCTIONS TO VISIBILITY.

KSZ001>006-013>018-027>032-041>047-032000-
NORTHWEST KANSAS

CITY           SKY/WX    TMP DP  RH WIND       PRES   REMARKS
GOODLAND       MOSUNNY   81  38  21 CALM      29.87F
HAYS           SUNNY     86  45  23 SE7       29.80F
HILL CITY      MOSUNNY   85  44  23 CALM      29.80F
RUSSELL        MOSUNNY   87  45  23 S6        29.77F
$$

KSZ061>065-074>080-084>089-032000-
SOUTHWEST KANSAS

CITY           SKY/WX    TMP DP  RH WIND       PRES   REMARKS
DODGE CITY     SUNNY     87  40  19 SE6       29.83F
ELKHART          N/A     85  41  21 W8          N/A
GARDEN CITY    MOSUNNY   82  37  20 VRB5      29.84F
GREAT BEND     MOSUNNY   82  54  36 S12G18    29.80F
LIBERAL        SUNNY     82  45  26 SE5       29.87F
PRATT          MOSUNNY   82  50  32 S14G20    29.84F
$$

KSZ066>073-081>083-090>101-032000-
SOUTHEAST KANSAS

CITY           SKY/WX    TMP DP  RH WIND       PRES   REMARKS
CHANUTE        MOSUNNY   78  58  49 S22G31    29.90F
COFFEYVILLE    PTSUNNY   79  57  46 S24G30    29.91F
HUTCHINSON     SUNNY     83  57  41 S16G22    29.82
MEDICINE LODGE   N/A     80  58  46 S20G26    29.82F
NEWTON         SUNNY     79  55  44 S20       29.86F
PARSONS        PTSUNNY   78  58  49 S17G26    29.92F
WICHITA INTL   MOSUNNY   79  55  43 S21       29.85S
WICHITA JABRA  MOSUNNY   81  56  42 SW23G29   29.85F
WICHITA MCCONL PTSUNNY   81  58  44 S23G31    29.85F
WINFIELD       MOSUNNY   80  57  45 S20G28    29.88F
$$

KSZ007>012-019>026-033>040-048>060-102>105-032000-
NORTHEAST KANSAS

CITY           SKY/WX    TMP DP  RH WIND       PRES   REMARKS
CONCORDIA      SUNNY     84  53  34 SW8G17    29.77F
EMPORIA        MOSUNNY   82  58  43 S16G24    29.84F
LAWRENCE       PTSUNNY   81  57  43 S24G30    29.83F
MANHATTAN      PTSUNNY   83  59  44 S16G25    29.78F
MARYSVILLE     MOSUNNY   81  59  47 S13       29.77S
OLATHE IND     PTSUNNY   80  56  43 S21G32    29.86F
OLATHE EXE     PTSUNNY   79  57  46 S25G32    29.84F
SALINA         SUNNY     86  57  37 S14       29.79F
TOPEKA BILLARD PTSUNNY   81  58  45 S16G24    29.81F
TOPEKA FORBES  PTSUNNY   81  57  43 S15G26    29.82F
$$


USA.gov is the U.S. government's official web portal to all federal, state and local government web resources and services.